Location: Menard
(37.9101°N, 89.8398°W)
Time: 03:05:18
(UTC+00:00)

ACS3 Solar Sail - Pass Details

Date: 14 October 2024
Orbit: 961 x 1022 km, 97.5° (Epoch: 03 November)

Event Time Altitude Azimuth Distance (km) Brightness Sun altitude
Exits shadow 00:22:13 15° 78° (ENE) 2,449 3.3 -12.3°
Maximum altitude 00:23:42 17° 62° (ENE) 2,376 3.3 -12.6°
Drops below altitude 10° 00:27:28 10° 25° (NNE) 2,834 4.0 -13.3°
Sets 00:30:57 0° 6° (N) 3,789 4.8 -14.0°
